User: anonymous   Login
Location: Niverville
(49.6028°N, 97.0419°W)
Time: 16:18:52
(UTC-06:00)
Language:

BREEZE-M DEB (TANK) - Orbit

View from above orbital plane
View from above orbital plane
View from above satellite
View from above satellite

Ground track
Ground track

The orbit data is extracted from the following two-line orbital elements,

1 33374U 08044B   16035.05713230  .00000471  00000-0  24728-3 0  9990
2 33374  49.4568 274.1056 5421229 144.9853 267.1757  4.86072579129715
Epoch (UTC): 04 February 2016 01:22:16
Eccentricity: 0.5421229
inclination: 49.4568°
perigee height: 362 km
apogee height: 16323 km
right ascension of ascending node: 274.1056°
argument of perigee: 144.9853°
revolutions per day: 4.86072579
mean anomaly at epoch: 267.1757°
orbit number at epoch: 12971

The dashed part of the orbit path shows where the satellite is in the earth's shadow,  

DLR